Beverly, MA

12:41 AM EST on November 18, 2017 (GMT -0500)
Beverly Municipal

Weather History for KBVY - March, 2014

Change the Weather History Date:

Thursday, March 27, 2014

  Actual Average Record
Temperature  
Mean Temperature 32 °F -  
Max Temperature 45 °F 45 °F 64 °F (2004)
Min Temperature 19 °F 29 °F 19 °F (2014)
Degree Days  
Heating Degree Days 33    
Moisture  
Dew Point 3 °F    
Average Humidity 32    
Maximum Humidity 50    
Minimum Humidity 15    
Precipitation  
Precipitation 0.00 in - - ()
Sea Level Pressure  
Sea Level Pressure 30.21 in    
Wind  
Wind Speed 14 mph (West)    
Max Wind Speed 21 mph    
Max Gust Speed 28 mph    
Visibility 10 miles    
Events      
Averages and records for this station are not official NWS values.
T = Trace of Precipitation, MM = Missing Value Source: NWS Daily Summary

Daily Weather History Graph

Daily Weather History Graph

Search for Another Location

Airport or City:

Trip Planner

Search our weather history database for the weather conditions in past years. The results will help you decide how hot, cold, wet, or windy it might be!

Date:

Astronomy

Mar. 27, 2014 Rise Set
Actual Time 6:34 AM EDT 7:03 PM EDT
Civil Twilight 6:06 AM EDT 7:32 PM EDT
Nautical Twilight 5:33 AM EDT 8:05 PM EDT
Astronomical Twilight 4:58 AM EDT 8:40 PM EDT
Moon 4:28 AM EDT (3/27) 3:44 PM EDT (3/27)
Length of Visible Light 13h 25m
Length of Day
12h 29m
Waning Crescent, 13% of the Moon is Illuminated
Mar 27
Waning Crescent
Mar 30
New
Apr 7
First Quarter
Apr 15
Full
Apr 22
Last Quarter

Hourly Weather History & Observations

Time (EDT) Temp. Windchill Dew Point Humidity Pressure Visibility Wind Dir Wind Speed Gust Speed Precip Events Conditions
12:53 AM 21.9 °F 6.5 °F -2.0 °F 35% 30.01 in 10.0 mi NW 20.7 mph 27.6 mph N/A   Clear
1:53 AM 21.0 °F 6.6 °F -2.9 °F 35% 30.04 in 10.0 mi NW 17.3 mph 26.5 mph N/A   Clear
2:53 AM 21.0 °F 7.6 °F -2.9 °F 35% 30.07 in 10.0 mi WNW 15.0 mph 24.2 mph N/A   Clear
3:53 AM 19.9 °F 7.3 °F -2.9 °F 37% 30.11 in 10.0 mi WNW 12.7 mph 23.0 mph N/A   Clear
4:53 AM 19.9 °F 6.2 °F -2.9 °F 37% 30.16 in 10.0 mi WNW 15.0 mph 24.2 mph N/A   Clear
5:53 AM 19.9 °F 6.7 °F -4.0 °F 35% 30.20 in 10.0 mi WNW 13.8 mph 21.9 mph N/A   Clear
6:53 AM 19.9 °F 9.3 °F -2.9 °F 37% 30.25 in 10.0 mi WNW 9.2 mph 18.4 mph N/A   Clear
7:53 AM 21.9 °F 9.8 °F -2.9 °F 34% 30.27 in 10.0 mi WNW 12.7 mph 19.6 mph N/A   Clear
8:53 AM 25.0 °F 12.2 °F -2.9 °F 30% 30.27 in 10.0 mi NW 16.1 mph 26.5 mph N/A   Clear
9:53 AM 28.0 °F 17.0 °F -2.9 °F 26% 30.29 in 10.0 mi WNW 13.8 mph 23.0 mph N/A   Clear
10:53 AM 30.0 °F 19.1 °F -2.0 °F 25% 30.29 in 10.0 mi West 15.0 mph 21.9 mph N/A   Clear
11:53 AM 33.1 °F 23.9 °F -2.0 °F 22% 30.29 in 10.0 mi WNW 12.7 mph 23.0 mph N/A   Clear
12:53 PM 37.0 °F 30.4 °F -0.0 °F 21% 30.26 in 10.0 mi West 9.2 mph - N/A   Clear
1:53 PM 39.0 °F 31.8 °F -0.9 °F 19% 30.24 in 10.0 mi West 11.5 mph 16.1 mph N/A   Clear
2:53 PM 42.1 °F 37.1 °F -0.9 °F 17% 30.24 in 10.0 mi West 8.1 mph 18.4 mph N/A   Clear
3:53 PM 41.0 °F 34.7 °F -0.9 °F 17% 30.23 in 10.0 mi SW 10.4 mph - N/A   Clear
4:53 PM 45.0 °F 39.7 °F -0.0 °F 15% 30.22 in 10.0 mi WSW 10.4 mph - N/A   Clear
5:53 PM 39.0 °F 33.4 °F 15.1 °F 38% 30.23 in 10.0 mi SE 8.1 mph - N/A   Clear
6:53 PM 35.1 °F 30.1 °F 18.0 °F 50% 30.24 in 10.0 mi SSE 5.8 mph - N/A   Clear
7:53 PM 36.0 °F - 19.0 °F 50% 30.24 in 10.0 mi Calm Calm - N/A   Partly Cloudy
8:53 PM 36.0 °F 29.6 °F 18.0 °F 48% 30.25 in 10.0 mi SSW 8.1 mph - N/A   Clear
9:53 PM 37.9 °F 30.9 °F 10.9 °F 33% 30.24 in 10.0 mi SSW 10.4 mph - N/A   Mostly Cloudy
10:53 PM 37.0 °F 30.4 °F 10.0 °F 33% 30.24 in 10.0 mi SSW 9.2 mph - N/A   Overcast
11:53 PM 36.0 °F 28.0 °F 12.0 °F 37% 30.25 in 10.0 mi SW 11.5 mph - N/A   Mostly Cloudy